Regional Weather Roundup
Issued by NWS Tiyan, Guam

Home | Current Version | Previous Version | Text Only | Print | Product List | Glossary On
Versions: 1 2 3 4 5 6 7 8 9 10 11 12 13 14 15 16 17 18 19 20 21 22 23 24 25 26 27 28 29 30 31 32 33 34 35 36 37 38 39 40 41 42 43 44 45 46 47 48 49 50
000
ASGM40 PGUM 190712
RWRGUM
WEATHER ROUNDUP FOR THE MARIANAS
NATIONAL WEATHER SERVICE TIYAN GU
500 PM CHST FRI SEP 19 2014

GUZ001>004-190800-
MARIANA ISLANDS-

CITY           SKY/WX    TMP DP  RH WIND       PRES   REMARKS
GUAM AIRPORT   MOSUNNY   84  77  79 N9        29.81R HX  94
ANDERSEN AFB   PTSUNNY   82  77  83 NE15      29.81S HX  91
ROTA AIRPORT   PTSUNNY   82  77  83 NE9       29.82S HX  91
TINIAN AP      PTSUNNY   84  77  79 NE12      29.78S HX  94
SAIPAN AP      MOSUNNY   84  79  84 NE9       29.81R HX  96

$$



USA.gov is the U.S. government's official web portal to all federal, state and local government web resources and services.